Regional Weather Roundup
Issued by NWS

Home | Current Version | Previous Version | Graphics & Text | Print | Product List | Glossary On
Versions: 1 2 3 4 5 6 7 8 9 10 11 12 13 14 15 16 17 18 19 20 21 22 23 24 25 26 27 28 29 30 31 32 33 34 35 36 37 38 39 40 41 42 43 44 45 46 47 48 49 50
000
ASUS45 KSLC 300410
RWRUT

UTAH REGIONAL WEATHER ROUNDUP
NATIONAL WEATHER SERVICE SALT LAKE CITY UT
1000 PM MDT FRI MAY 29 2015

UTZ001>011-023>025-300500-

NORTHERN UTAH

CITY           SKY/WX    TMP DP  RH WIND       PRES   REMARKS
BRIGHAM CITY   CLEAR     65  50  57 CALM      30.12R
HILL AFB       PTCLDY    62  40  44 E8        30.14R
LOGAN          CLEAR     61  44  53 S5        30.13R
OGDEN          PTCLDY    61  45  55 S6        30.12R
PROVO AIRPORT  CLEAR     63  45  51 SE5       30.14R
SALT LAKE CITY MOCLDY    67  47  48 SE5       30.11R
VERNAL         CLEAR     57  44  62 NW6       30.21R
WENDOVER       PTCLDY    66  46  48 NE6       30.10S
HEBER CITY     PTCLDY    54  41  62 CALM      30.20R
WEST JORDAN    CLEAR     63  45  51 SW8       30.14R

$$

UTZ012>022-026-027-300500-

SOUTHERN/CENTRAL UTAH

CITY           SKY/WX    TMP DP  RH WIND       PRES   REMARKS
BLANDING       CLEAR     57  26  29 N10       30.28R
BRYCE CANYON   MOCLDY    52  39  61 N3        30.33R
CEDAR CITY     MOCLDY    59  43  55 NE7       30.19R
DELTA          CLEAR     68  33  26 CALM      30.13R
HANKSVILLE     CLEAR     68  32  26 SE5       30.14R
MILFORD        PTCLDY    61  47  59 W12       30.14R
MOAB/CYNLANDS  CLEAR     66  34  30 E6        30.12R
PRICE          CLEAR     62  38  40 NE9       30.21R
ST GEORGE      PTCLDY    81  39  22 NE18G24   29.99R
KANAB          CLEAR     66  37  34 NW10      30.18R

$$

REGIONAL REPORTS     COLORADO/ARIZONA

CITY           SKY/WX    TMP DP  RH WIND       PRES   REMARKS
CRAIG, CO      CLEAR     48  40  73 CALM      30.30R
GRAND JUNCTION CLEAR     58  44  60 NE8       30.16R
RIFLE          CLEAR     56  41  57 SE3       30.23R
MONTROSE       CLEAR     58  37  45 S6        30.24R
CORTEZ         CLEAR     57  25  29 E6        30.21R
PAGE, AZ       PTCLDY    77  38  24 N6        30.11R
GRAND CANYON   PTCLDY    59  40  49 NE7       30.24R
KINGMAN        CLEAR     74   9   8 S12       30.00R
FLAGSTAFF      PTCLDY    52  38  58 CALM      30.27R

$$

REGIONAL REPORTS    NEVADA/IDAHO/WYOMING

CITY           SKY/WX    TMP DP  RH WIND       PRES   REMARKS
LAS VEGAS, NV  PTCLDY    93  20   7 S13       29.83R
ELY            MOCLDY    64  42  44 S16       30.17R
ELKO           PTCLDY    66  39  37 E5        30.07R
POCATELLO, ID  CLEAR     65  46  50 CALM      30.11R
BURLEY         PTCLDY    63  47  55 E3        30.06R
EVANSTON, WY   CLEAR     55  41  59 E7        30.28R
ROCK SPRINGS   CLEAR     51  41  68 SE9       30.29R
KEMMERER       CLEAR     54  36  50 SE6       30.30R

$$



USA.gov is the U.S. government's official web portal to all federal, state and local government web resources and services.